Date,TemperatureHighF,TemperatureAvgF,TemperatureLowF,DewpointHighF,DewpointAvgF,DewpointLowF,HumidityHigh,HumidityAvg,HumidityLow,PressureMaxIn,PressureMinIn,WindSpeedMaxMPH,WindSpeedAvgMPH,GustSpeedMaxMPH,PrecipitationSumIn
2013-1-1,24.4,19.4,13.6,18.3,13.2,8.8,86,77,65,30.35,30.19,14,5,14,0.00
2013-1-2,34.4,22.5,12.9,25.6,15.8,6.0,84,75,62,30.31,30.15,13,4,13,0.00
2013-1-3,33.7,25.2,16.1,22.5,18.6,12.4,86,76,62,30.47,30.31,13,3,13,0.00
2013-1-4,40.1,26.8,14.3,24.1,17.5,9.9,85,68,51,30.40,30.18,15,5,17,0.01
2013-1-5,40.1,34.6,30.7,28.8,24.6,16.3,79,67,55,30.26,30.06,24,8,24,0.00
2013-1-6,46.7,34.8,24.1,25.8,21.2,16.7,75,58,41,30.38,30.16,25,5,25,0.00
2013-1-7,51.3,41.7,34.3,27.9,24.0,20.9,60,50,35,30.16,29.91,31,10,31,0.00
2013-1-8,52.9,40.8,33.2,31.3,27.8,24.6,76,61,39,30.18,29.85,28,8,28,0.00
2013-1-9,52.8,38.9,27.8,33.0,28.4,22.7,84,67,41,30.42,30.17,14,2,14,0.00
2013-1-10,45.2,42.1,39.1,43.3,38.4,29.7,93,87,66,30.25,29.63,20,6,21,0.42
2013-1-11,58.9,48.3,33.7,43.7,38.4,14.1,94,72,21,29.80,29.38,40,14,40,0.01
2013-1-12,33.5,24.5,17.8,22.3,11.1,6.4,68,56,47,30.17,29.80,27,9,31,0.00
2013-1-13,26.3,18.2,11.6,8.4,4.5,0.4,67,55,39,30.39,30.15,21,7,22,0.00
2013-1-14,31.2,21.7,12.3,10.4,7.6,4.9,76,56,35,30.53,30.37,11,2,11,0.00
2013-1-15,35.9,26.4,17.5,16.8,13.0,8.4,74,57,41,30.38,30.15,11,3,11,0.00
2013-1-16,55.0,36.7,21.6,30.1,22.5,12.9,72,58,37,30.25,30.02,21,6,21,0.00
2013-1-17,56.5,40.8,29.4,30.4,25.9,22.6,80,58,28,30.47,30.25,13,4,13,0.00
2013-1-18,62.3,46.8,35.2,30.6,27.8,25.2,70,51,26,30.31,29.94,42,11,42,0.00
2013-1-19,61.8,46.2,34.0,30.3,25.4,21.0,70,47,21,30.23,29.91,21,6,24,0.00
2013-1-20,40.8,30.1,21.8,26.3,15.2,6.2,74,54,37,30.44,30.22,21,7,21,0.00
2013-1-21,33.7,23.5,17.2,15.9,11.3,6.2,74,60,45,30.44,30.28,22,5,22,0.00
2013-1-22,37.5,24.0,13.6,14.2,10.2,6.0,72,56,37,30.34,30.21,23,5,23,0.00
2013-1-23,47.1,30.3,18.9,25.0,17.3,11.6,75,60,37,30.41,30.15,25,6,25,0.00
2013-1-24,30.0,22.5,13.3,14.9,5.8,-1.2,71,51,27,30.45,30.15,22,8,22,0.00
2013-1-25,51.0,35.8,21.9,23.0,17.7,9.1,67,49,32,30.27,30.16,10,2,10,0.00
2013-1-26,59.6,46.7,35.5,39.9,26.0,15.7,80,48,19,30.20,29.90,31,9,31,0.00
2013-1-27,65.8,49.3,41.1,53.8,42.9,36.4,92,79,49,29.91,29.59,35,10,35,0.00
2013-1-28,73.5,54.4,34.3,57.9,42.9,32.2,94,70,27,29.78,29.49,37,9,37,0.00
2013-1-29,64.5,38.1,31.5,57.5,32.7,28.7,92,81,53,29.66,29.48,32,11,37,0.00
2013-1-30,31.5,25.4,19.4,29.5,19.0,12.9,93,77,58,29.97,29.64,36,10,36,0.00
2013-1-31,23.0,19.4,13.6,15.6,10.1,3.0,79,67,47,30.47,29.92,26,6,26,0.00
2013-2-1,37.3,23.6,11.1,18.4,9.8,3.2,75,56,37,30.45,30.13,25,7,25,0.00
2013-2-2,53.3,40.5,28.8,33.7,27.4,17.9,82,60,41,30.25,30.12,18,6,18,0.00
2013-2-3,54.7,44.2,31.8,28.5,24.2,20.0,70,47,26,30.24,29.75,26,7,26,0.00
2013-2-4,48.9,39.3,30.6,29.8,27.5,24.0,77,63,45,29.95,29.73,19,5,19,0.00
2013-2-5,59.5,42.7,29.7,30.0,26.4,24.0,81,56,26,30.01,29.86,14,5,14,0.00
2013-2-6,60.7,48.8,37.5,49.8,38.7,25.5,90,69,49,30.01,29.73,35,9,35,0.00
2013-2-7,53.9,46.9,34.0,51.0,35.7,24.4,92,67,33,30.18,29.75,28,9,29,0.92
2013-2-8,39.9,32.6,27.2,32.0,27.9,24.8,95,83,68,30.32,30.08,23,7,23,0.00
2013-2-9,50.4,41.5,34.6,40.3,34.4,29.2,90,76,64,30.09,29.54,35,13,35,0.00
2013-2-10,46.7,41.0,34.0,42.7,28.7,21.1,89,62,47,29.98,29.34,42,16,42,0.00
2013-2-11,43.6,35.1,27.9,21.4,17.8,14.2,67,51,32,30.21,29.97,23,6,23,0.00
2013-2-12,43.5,34.7,28.4,25.6,22.4,18.7,79,62,41,30.16,29.95,14,3,14,0.00
2013-2-13,56.7,40.5,25.8,25.5,20.5,16.4,79,48,23,29.96,29.80,23,5,23,0.00
2013-2-14,48.2,39.9,28.5,30.8,24.4,16.4,75,55,31,30.28,29.85,33,8,33,0.00
2013-2-15,39.8,29.6,19.7,17.9,14.4,8.1,78,55,29,30.42,30.27,33,7,33,0.00
2013-2-16,54.5,32.0,16.5,26.8,16.8,9.7,76,56,28,30.38,29.97,28,6,28,0.00
2013-2-17,67.8,47.9,28.4,31.8,26.0,22.4,79,49,19,29.97,29.45,27,8,27,0.00
2013-2-18,55.1,43.4,29.7,30.5,23.3,15.6,67,46,31,30.10,29.37,46,13,46,0.00
2013-2-19,38.3,29.9,23.8,16.6,10.8,2.5,69,47,27,30.34,30.10,19,6,19,0.00
2013-2-20,27.6,23.6,20.5,21.9,12.3,1.6,86,64,38,30.28,30.05,29,12,29,0.00
2013-2-21,23.2,21.2,15.2,19.4,17.5,10.7,87,85,75,30.07,29.75,23,9,23,0.00
2013-2-22,24.5,17.1,11.4,14.6,10.4,6.1,84,75,64,30.13,29.90,19,6,19,0.00
2013-2-23,37.3,21.1,6.3,24.8,13.4,0.8,81,72,58,30.11,29.90,15,5,15,0.00
2013-2-24,40.2,32.0,20.8,29.2,22.5,15.3,80,68,58,29.93,29.83,21,7,21,0.00
2013-2-25,35.8,33.3,31.3,30.4,28.7,25.2,93,83,71,29.95,29.76,30,12,30,0.16
2013-2-26,34.9,30.7,26.9,27.0,24.4,21.6,88,77,67,29.93,29.75,29,11,29,0.00
2013-2-27,39.8,32.8,27.5,27.0,24.2,20.4,89,71,51,30.15,29.93,29,10,29,0.00
2013-2-28,36.2,32.9,30.0,25.7,24.1,22.8,77,70,60,30.23,30.15,22,8,22,0.00
2013-3-1,33.2,30.2,23.8,24.8,20.0,16.1,78,66,53,30.35,30.21,26,9,26,0.00
2013-3-2,38.9,28.6,17.7,24.5,19.3,13.1,82,69,50,30.37,30.10,18,5,18,0.00
2013-3-3,47.4,38.6,31.0,35.1,29.2,23.9,78,69,60,30.10,29.58,21,7,21,0.00
2013-3-4,44.2,39.0,31.0,35.2,31.4,21.5,86,74,51,30.05,29.57,32,9,32,0.01
2013-3-5,41.5,33.9,27.2,22.0,15.0,10.0,60,46,32,30.38,30.05,39,12,39,0.00
2013-3-6,44.5,32.6,21.9,23.5,18.5,14.4,74,57,35,30.43,30.14,27,7,27,0.00
2013-3-7,63.7,46.4,30.9,29.8,25.0,20.9,72,47,23,30.15,29.95,31,11,31,0.00
2013-3-8,62.7,52.1,42.1,47.1,38.3,28.6,74,60,49,30.01,29.76,34,14,34,0.00
2013-3-9,62.9,54.5,39.2,53.8,49.2,33.6,90,82,69,29.77,29.44,37,15,37,0.15
2013-3-10,39.2,29.8,25.3,33.9,24.6,18.2,90,81,69,30.03,29.56,40,16,40,0.04
2013-3-11,43.9,30.8,17.8,28.4,16.6,9.5,74,57,35,30.04,29.93,19,6,19,0.01
2013-3-12,47.0,40.9,34.4,29.1,19.7,8.9,75,45,21,30.34,30.00,31,8,32,0.00
2013-3-13,55.7,39.7,25.4,31.0,22.4,15.5,77,53,29,30.43,30.17,27,7,27,0.00
2013-3-14,73.7,56.6,42.1,37.0,33.3,27.1,71,44,22,30.17,29.99,22,6,22,0.00
2013-3-15,84.7,63.9,45.1,43.3,36.6,28.0,74,42,13,29.99,29.55,26,6,27,0.00
2013-3-16,59.6,42.3,33.5,42.7,31.3,25.2,79,65,49,30.01,29.65,30,14,31,0.00
2013-3-17,40.3,34.9,30.9,33.0,28.4,24.8,89,77,69,30.01,29.67,24,9,26,0.01
2013-3-18,54.7,43.4,35.6,34.9,24.8,13.5,92,54,20,30.03,29.73,32,7,32,0.01
2013-3-19,47.9,39.0,29.1,31.3,24.1,15.2,73,55,39,30.26,30.03,15,4,15,0.00
2013-3-20,44.2,36.8,26.3,31.9,18.5,10.3,77,50,28,30.41,30.00,21,6,21,0.00
2013-3-21,46.7,36.4,31.9,26.5,16.4,8.2,78,46,25,30.00,29.71,38,16,44,0.00
2013-3-22,44.1,34.8,28.8,31.1,27.9,24.3,89,76,58,29.95,29.86,20,6,20,0.00
2013-3-23,34.5,32.9,29.7,30.9,28.5,26.3,90,84,76,30.00,29.88,32,10,32,0.11
2013-3-24,36.0,29.3,23.8,26.9,19.1,12.2,91,67,43,30.17,29.99,36,15,38,0.00
2013-3-25,34.9,29.3,23.9,19.5,16.5,11.5,76,59,41,30.39,30.17,24,8,26,0.00
2013-3-26,44.1,31.8,18.3,25.6,18.7,12.6,79,60,41,30.42,30.18,23,6,23,0.00
2013-3-27,58.6,45.1,33.5,33.6,26.0,20.8,69,49,31,30.19,30.04,27,8,27,0.00
2013-3-28,65.6,48.7,31.8,37.8,31.4,26.0,80,55,27,30.14,30.01,19,5,19,0.00
2013-3-29,71.3,56.2,45.4,50.1,42.3,35.9,75,61,38,30.09,29.93,27,8,28,0.00
2013-3-30,71.3,60.2,51.0,54.2,49.1,39.8,90,69,41,29.95,29.79,23,6,23,0.32
2013-3-31,65.2,54.3,44.9,46.2,35.3,22.9,86,54,21,29.98,29.85,26,7,26,0.08
2013-4-1,52.3,40.3,31.5,34.2,20.7,10.4,76,48,27,30.27,29.91,31,11,31,0.00
2013-4-2,50.4,41.1,33.2,26.8,19.7,16.6,57,43,27,30.29,30.17,20,7,20,0.00
2013-4-3,44.1,41.7,37.9,30.9,26.5,19.1,65,55,38,30.31,30.21,21,5,21,0.00
2013-4-4,64.3,49.3,37.9,36.8,32.4,27.7,81,55,27,30.22,30.02,12,3,12,0.00
2013-4-5,67.3,54.3,38.8,42.3,37.8,33.8,85,57,31,30.07,29.64,41,12,41,0.00
2013-4-6,74.4,63.2,54.4,45.4,40.8,34.9,69,46,24,29.74,29.57,44,12,44,0.00
2013-4-7,75.8,62.6,50.2,56.8,45.4,33.1,86,57,26,29.75,29.50,32,9,32,0.00
2013-4-8,74.9,65.5,58.4,59.2,57.1,54.1,89,75,51,29.58,29.45,31,10,31,0.00
2013-4-9,71.1,53.0,31.0,59.9,47.1,27.8,90,81,66,29.95,29.39,36,12,36,0.67
2013-4-10,31.8,30.3,28.7,28.7,26.8,24.9,89,87,84,30.03,29.76,0,0,0,0.02
2013-4-11,44.8,34.2,26.7,28.1,25.0,21.7,88,70,45,29.93,29.72,26,4,26,0.31
2013-4-12,55.6,41.8,29.4,30.8,26.8,22.6,76,58,35,30.00,29.83,22,7,22,0.00
2013-4-13,67.9,53.8,34.4,50.5,38.4,29.2,82,58,41,30.01,29.43,40,9,40,0.00
2013-4-14,68.3,62.3,51.9,50.4,36.6,19.0,63,41,16,29.67,29.26,47,16,50,0.00
2013-4-15,53.9,48.3,43.1,33.6,24.2,15.3,58,39,27,29.95,29.64,26,9,26,0.00
2013-4-16,46.7,42.8,39.8,35.5,27.7,24.0,74,55,45,30.10,29.90,27,12,27,0.00
2013-4-17,44.5,41.8,38.8,41.6,38.3,34.8,93,88,72,30.02,29.66,29,9,30,0.72
2013-4-18,39.1,35.8,31.3,35.9,27.2,22.6,89,72,54,30.04,29.72,34,14,34,0.11
2013-4-19,56.3,43.2,30.4,30.5,24.6,19.1,71,50,30,30.06,29.97,30,9,30,0.00
2013-4-20,62.4,48.2,33.8,40.4,31.0,23.8,71,53,32,30.09,29.92,34,13,34,0.00
2013-4-21,68.3,59.4,51.1,42.9,38.7,35.5,60,47,34,30.04,29.93,39,13,39,0.00
2013-4-22,58.7,50.8,34.9,50.3,42.3,30.0,87,73,58,30.12,29.81,37,10,37,0.18
2013-4-23,36.6,33.1,29.3,30.3,26.2,21.9,92,76,59,30.25,30.05,37,11,37,0.06
2013-4-24,60.1,42.7,25.6,33.3,25.5,18.7,82,54,24,30.26,30.09,23,5,23,0.02
2013-4-25,70.3,53.4,35.3,40.7,33.1,26.4,79,50,21,30.23,29.97,33,7,33,0.00
2013-4-26,59.0,53.3,49.9,49.1,44.8,36.4,89,74,45,30.11,29.97,29,10,29,0.04
2013-4-27,67.3,55.5,49.2,51.1,48.3,46.2,93,78,53,30.11,29.91,13,4,14,0.01
2013-4-28,79.9,63.6,49.2,55.8,50.9,46.1,90,67,37,29.92,29.60,26,10,26,0.00
2013-4-29,85.7,71.8,56.5,58.3,53.1,46.3,79,54,29,29.66,29.41,35,9,35,0.00
2013-4-30,85.1,74.5,65.3,59.6,54.7,47.9,69,51,38,29.61,29.46,32,16,43,0.00
2013-5-1,71.5,49.6,36.6,52.7,41.5,32.9,89,75,51,30.32,29.61,38,14,38,0.78
2013-5-2,52.0,42.0,33.4,34.3,28.4,16.4,91,63,28,30.50,30.28,42,15,42,0.46
2013-5-3,56.9,45.8,34.1,30.5,24.2,14.4,73,47,21,30.36,29.97,33,10,33,0.00
2013-5-4,47.1,44.3,41.8,37.8,32.1,24.4,80,63,47,30.08,29.90,30,12,30,0.00
2013-5-5,63.9,50.9,42.9,48.9,42.4,37.5,86,73,53,30.15,30.02,21,7,21,0.00
2013-5-6,68.3,54.2,42.6,50.9,46.2,39.8,91,76,52,30.10,29.96,13,3,13,0.00
2013-5-7,72.7,62.5,51.1,53.7,49.9,45.8,83,65,44,30.00,29.81,23,7,24,0.02
2013-5-8,77.6,66.8,56.3,62.1,56.0,51.8,90,70,49,29.93,29.70,41,10,41,1.40
2013-5-9,69.6,60.8,55.3,56.1,53.8,51.1,92,79,57,29.94,29.76,20,6,40,0.20
2013-5-10,70.8,61.6,55.1,53.1,48.7,41.8,86,65,36,30.04,29.93,21,7,21,0.00
2013-5-11,67.1,59.5,51.7,49.2,35.1,21.4,82,45,19,30.21,30.00,31,9,31,0.00
2013-5-12,68.6,55.7,43.8,45.4,37.6,27.2,73,52,34,30.22,30.00,27,7,27,0.05
2013-5-13,84.1,65.2,45.1,59.0,48.9,41.0,86,59,31,30.04,29.81,23,6,23,0.00
2013-5-14,93.8,77.3,60.5,56.5,49.2,42.0,67,41,18,29.81,29.62,39,10,39,0.00
2013-5-15,85.1,74.4,65.6,63.2,56.5,52.0,74,55,34,29.74,29.64,25,10,25,0.00
2013-5-16,78.3,68.6,60.9,61.8,58.9,56.1,94,73,49,29.77,29.67,22,5,22,0.00
2013-5-17,82.8,72.1,60.4,62.6,59.5,56.5,88,66,45,29.80,29.69,23,7,23,0.00
2013-5-18,83.8,73.7,63.4,70.2,65.3,56.7,88,76,58,29.76,29.49,39,11,39,0.23
2013-5-19,80.9,70.8,58.4,67.1,58.0,47.9,85,65,40,29.64,29.35,39,9,39,0.14
2013-5-20,78.6,65.2,57.0,60.2,52.8,44.0,84,66,34,29.69,29.53,23,5,23,0.00
2013-5-21,72.7,62.9,53.2,48.7,45.6,40.9,82,55,35,29.74,29.63,26,7,26,0.00
2013-5-22,73.2,61.7,49.8,52.0,47.4,42.9,83,61,42,29.91,29.72,23,7,23,0.00
2013-5-23,70.8,60.5,52.0,53.5,49.9,45.9,85,69,50,30.10,29.91,22,8,22,0.00
2013-5-24,76.0,66.0,54.8,64.1,56.2,50.3,86,71,57,30.14,29.91,30,12,30,0.00
2013-5-25,83.4,75.7,68.9,65.4,62.8,58.6,86,66,47,29.98,29.80,37,12,37,0.00
2013-5-26,83.6,74.9,68.3,67.7,65.2,62.4,84,72,57,29.88,29.68,35,14,35,0.00
2013-5-27,85.5,75.7,66.1,68.8,65.9,60.0,82,72,55,29.68,29.40,43,16,43,0.00
2013-5-28,90.5,76.8,69.3,70.6,66.6,63.7,88,72,44,29.57,29.38,44,11,44,0.04
2013-5-29,83.0,72.4,62.4,68.0,63.4,56.2,92,74,55,29.57,29.38,43,15,43,1.72
2013-5-30,78.8,65.5,58.6,59.3,56.4,48.6,92,74,46,29.62,29.45,33,6,33,0.92
2013-5-31,83.8,74.3,65.6,64.7,54.8,41.1,88,55,24,29.68,29.50,21,4,21,0.09
2013-6-1,72.1,63.1,55.0,54.0,48.1,44.2,76,58,44,30.00,29.66,28,9,28,0.00
2013-6-2,70.6,60.2,49.9,47.7,44.5,40.9,82,58,36,30.08,29.91,23,6,24,0.00
2013-6-3,79.4,66.0,53.2,60.8,52.1,45.6,85,63,39,29.94,29.66,32,12,32,0.03
2013-6-4,86.1,73.6,65.2,66.6,61.9,58.1,90,69,40,29.83,29.61,25,7,28,0.11
2013-6-5,70.8,65.9,60.9,64.6,57.5,49.9,93,75,53,29.96,29.79,37,8,37,0.57
2013-6-6,75.3,65.2,53.9,55.7,50.0,44.4,89,61,35,29.97,29.87,18,5,18,0.00
2013-6-7,77.2,67.5,55.0,55.6,51.8,48.3,85,59,38,29.95,29.79,14,4,14,0.00
2013-6-8,82.0,70.0,62.9,63.1,57.2,52.3,92,66,41,29.80,29.57,36,10,38,0.94
2013-6-9,86.1,72.0,56.9,61.9,54.5,45.7,92,59,26,29.80,29.71,21,5,21,0.00
2013-6-10,93.8,77.8,60.2,70.8,61.0,52.8,83,58,39,29.79,29.59,24,7,24,0.00
2013-6-11,98.0,86.2,74.9,64.8,58.6,54.1,57,41,24,29.71,29.55,37,12,37,0.00
2013-6-12,95.4,84.5,73.7,68.1,63.1,54.8,68,50,28,29.88,29.54,34,11,34,0.00
2013-6-13,85.9,73.5,61.3,63.8,57.2,52.7,75,58,39,29.99,29.84,24,8,24,0.00
2013-6-14,99.2,84.1,69.8,69.4,62.1,50.9,82,52,22,29.85,29.66,36,9,36,0.00
2013-6-15,90.7,79.8,74.0,67.8,61.8,55.4,71,55,37,29.84,29.67,29,6,29,0.00
2013-6-16,89.9,78.4,71.1,68.5,64.1,57.1,75,63,41,29.86,29.75,22,6,23,0.00
2013-6-17,86.1,76.3,66.9,68.5,63.7,55.9,91,68,37,29.90,29.61,39,7,39,0.24
2013-6-18,90.1,76.9,66.8,66.3,60.8,49.0,85,61,26,29.94,29.81,32,4,32,0.03
2013-6-19,87.4,76.7,65.8,65.0,61.3,56.4,83,61,37,29.88,29.76,28,8,28,0.00
2013-6-20,95.4,82.2,70.4,69.1,66.2,61.5,85,61,33,29.82,29.65,35,13,35,0.00
2013-6-21,96.8,86.3,77.9,69.2,65.2,57.9,65,51,29,29.76,29.67,37,13,37,0.00
2013-6-22,95.1,85.3,77.6,68.9,62.7,56.4,64,48,30,29.77,29.62,41,14,41,0.00
2013-6-23,94.5,83.7,72.0,68.3,63.5,56.8,76,53,29,29.74,29.64,32,10,32,0.00
2013-6-24,93.4,84.0,78.1,67.1,64.1,57.8,66,52,31,29.73,29.56,36,14,40,0.00
2013-6-25,100.4,86.5,76.5,68.7,63.7,51.0,76,50,23,29.72,29.47,43,13,43,0.03
2013-6-26,101.5,87.3,73.7,70.4,63.8,53.3,85,51,21,29.76,29.63,15,5,16,0.00
2013-6-27,105.1,86.2,74.7,75.6,68.6,52.0,81,59,23,29.88,29.64,36,5,36,0.00
2013-6-28,91.2,80.0,67.6,68.1,59.3,48.2,88,55,26,29.93,29.82,24,6,24,0.00
2013-6-29,86.7,77.3,64.8,58.1,51.6,43.5,73,44,24,29.89,29.79,33,9,33,0.00
2013-6-30,80.3,71.9,62.1,57.0,51.8,43.5,76,51,29,30.00,29.86,27,7,27,0.00
2013-7-1,81.6,70.6,57.2,51.7,47.3,40.3,78,47,25,30.09,30.00,21,6,21,0.00
2013-7-2,83.0,71.6,58.6,54.8,48.0,42.7,72,46,26,30.07,29.96,18,4,18,0.00
2013-7-3,87.2,74.9,64.5,53.7,47.4,41.4,61,40,21,30.00,29.83,17,4,18,0.00
2013-7-4,89.7,77.9,65.8,55.9,50.2,42.8,59,40,20,29.89,29.75,31,7,34,0.00
2013-7-5,92.3,81.9,71.3,59.0,54.9,50.1,64,41,27,29.79,29.68,35,13,35,0.00
2013-7-6,88.0,80.5,75.8,64.8,61.0,56.0,61,52,38,29.73,29.67,33,13,33,0.00
2013-7-7,100.2,87.3,76.5,63.2,59.3,50.7,61,41,23,29.79,29.71,32,12,32,0.00
2013-7-8,99.9,88.3,76.3,66.7,61.4,52.4,71,44,22,29.88,29.76,29,10,32,0.00
2013-7-9,106.5,89.9,73.9,69.1,64.3,58.5,81,46,22,29.87,29.66,36,8,36,0.41
2013-7-10,91.2,81.4,70.8,70.7,66.2,57.8,87,63,36,29.92,29.83,24,7,24,0.01
2013-7-11,89.0,77.8,68.3,69.9,64.7,61.9,89,65,44,30.02,29.82,29,8,31,0.44
2013-7-12,99.2,85.8,72.3,68.4,63.6,59.5,68,50,28,29.87,29.75,26,10,26,0.00
2013-7-13,96.3,87.2,78.6,70.3,68.0,65.0,69,54,39,29.83,29.73,28,11,28,0.00
2013-7-14,86.5,77.4,70.8,69.5,65.6,56.5,89,69,38,30.01,29.78,26,7,29,0.32
2013-7-15,86.1,74.0,66.1,69.6,62.3,55.9,83,68,37,30.10,30.00,30,4,30,0.15
2013-7-16,88.8,78.1,65.6,65.4,62.1,59.0,86,60,38,30.17,30.09,21,5,21,0.00
2013-7-17,91.2,80.6,70.8,68.5,65.9,63.2,86,63,42,30.22,30.07,18,3,20,0.00
2013-7-18,92.3,81.8,71.8,68.8,65.5,60.5,85,60,36,30.09,29.86,29,7,29,0.00
2013-7-19,97.1,84.1,72.8,67.1,64.2,59.0,76,54,32,29.91,29.73,28,6,28,0.00
2013-7-20,94.7,78.0,70.8,74.1,67.4,61.7,90,72,34,29.84,29.69,31,5,31,0.57
2013-7-21,86.5,77.0,70.4,70.5,68.0,65.3,89,75,55,29.82,29.69,13,4,14,0.00
2013-7-22,91.4,81.5,73.2,72.3,69.1,63.0,90,68,45,29.74,29.62,24,6,24,0.00
2013-7-23,92.1,78.3,69.8,67.1,64.3,60.7,80,64,36,29.89,29.72,33,8,33,0.02
2013-7-24,87.6,76.8,66.4,65.1,59.0,47.9,83,58,27,29.99,29.85,17,5,17,0.00
2013-7-25,79.0,72.8,69.8,69.8,64.3,58.5,90,75,56,29.97,29.89,19,5,19,0.54
2013-7-26,84.0,73.5,65.6,67.6,62.3,52.9,93,71,43,30.02,29.90,23,6,26,0.12
2013-7-27,69.4,63.7,59.0,58.0,54.7,51.3,88,73,54,30.10,29.93,17,4,17,0.14
2013-7-28,63.7,61.2,56.3,61.3,57.8,53.3,93,89,74,30.00,29.92,20,6,20,1.61
2013-7-29,70.4,66.7,62.3,68.2,64.0,59.2,94,91,84,29.96,29.83,20,6,22,0.66
2013-7-30,79.0,72.0,67.9,68.9,67.4,66.1,95,86,70,30.01,29.89,15,4,15,0.00
2013-7-31,86.5,75.7,66.3,69.5,66.8,64.5,95,76,51,30.07,29.96,11,1,12,0.00
2013-8-1,88.4,79.2,68.6,69.7,66.5,61.9,92,68,43,30.02,29.76,23,6,23,0.00
2013-8-2,91.4,78.8,66.1,74.8,68.9,60.6,90,73,55,29.89,29.72,36,8,38,0.20
2013-8-3,83.2,76.6,70.9,72.5,70.2,67.2,92,81,69,29.99,29.81,27,9,27,0.00
2013-8-4,81.6,75.3,69.8,72.1,70.0,67.0,93,84,69,30.00,29.87,27,6,27,1.09
2013-8-5,84.5,76.7,71.5,73.5,70.8,67.2,93,83,64,29.90,29.68,28,4,28,0.05
2013-8-6,91.8,80.3,68.9,74.3,69.3,65.1,92,71,49,29.80,29.67,16,3,16,0.01
2013-8-7,84.0,76.8,70.6,73.5,69.1,65.9,91,78,63,29.86,29.70,23,6,23,0.52
2013-8-8,74.0,70.0,67.1,66.6,63.7,61.2,91,81,68,29.95,29.79,24,6,24,0.22
2013-8-9,78.3,72.0,68.1,65.1,60.9,48.1,86,69,46,30.08,29.92,22,4,22,0.00
2013-8-10,85.1,73.6,63.2,65.4,62.3,58.9,91,70,43,30.14,30.00,15,3,15,0.00
2013-8-11,85.5,76.8,67.6,68.6,65.6,61.7,87,70,48,30.06,29.91,17,5,17,0.00
2013-8-12,85.3,76.4,66.0,69.4,66.4,62.4,93,72,52,29.99,29.87,32,4,32,1.20
2013-8-13,79.8,72.7,67.6,68.8,66.3,61.4,90,80,62,30.06,29.94,21,4,21,0.13
2013-8-14,80.5,71.3,61.3,62.6,59.9,53.8,93,69,43,30.11,29.97,16,4,16,0.01
2013-8-15,82.2,69.8,63.5,68.9,61.5,56.7,90,75,59,30.02,29.83,24,7,24,0.07
2013-8-16,79.4,69.6,62.4,64.7,61.8,60.3,93,78,56,30.08,29.96,16,5,16,0.00
2013-8-17,68.6,64.8,62.9,60.9,59.2,57.4,86,82,73,30.11,30.08,12,5,12,0.00
2013-8-18,82.6,75.6,62.6,63.0,60.0,56.0,80,59,45,30.08,29.94,21,8,21,0.00
2013-8-19,87.0,76.9,66.8,66.9,63.7,61.2,83,65,46,30.01,29.86,25,8,25,0.00
2013-8-20,90.5,79.5,69.9,66.6,64.4,61.3,82,62,40,29.94,29.84,28,8,28,0.00
2013-8-21,93.2,80.4,69.4,67.2,64.0,60.3,82,60,36,29.93,29.86,24,9,24,0.00
2013-8-22,90.7,80.4,71.1,66.9,64.0,56.6,76,59,34,29.99,29.88,21,8,21,0.00
2013-8-23,91.2,81.1,71.6,71.3,68.6,65.8,86,67,46,29.95,29.83,26,8,26,0.00
2013-8-24,94.0,84.1,75.4,70.1,68.3,63.1,81,61,37,29.98,29.90,25,10,25,0.00
2013-8-25,94.9,84.3,75.1,69.5,67.7,64.1,78,59,37,30.04,29.95,25,9,25,0.00
2013-8-26,95.4,84.6,74.9,68.7,66.1,60.4,80,56,33,30.02,29.91,26,9,26,0.00
2013-8-27,94.5,83.6,73.9,66.2,62.6,53.9,76,52,26,29.94,29.85,24,9,24,0.00
2013-8-28,87.6,76.1,69.6,69.8,66.1,63.0,86,72,51,29.94,29.88,15,5,15,0.00
2013-9-6,97.1,89.4,76.3,64.6,61.7,56.5,65,41,27,29.98,29.81,21,8,21,0.00
2013-9-7,101.7,86.9,73.0,65.6,62.1,56.3,74,47,23,29.86,29.75,20,6,20,0.00
2013-9-8,101.0,87.3,75.1,65.3,60.6,53.7,63,43,23,29.79,29.68,21,6,21,0.00
2013-9-9,94.9,84.2,72.7,62.0,57.1,49.8,62,42,23,29.79,29.71,34,9,34,0.00
2013-9-10,94.7,84.0,73.3,63.2,58.7,54.7,62,44,29,29.94,29.79,30,10,30,0.00
2013-9-11,93.2,80.3,71.3,69.0,62.0,56.4,91,56,33,30.04,29.89,29,6,29,0.09
2013-9-12,77.6,72.0,69.4,69.1,67.3,60.0,93,85,70,30.11,30.01,14,3,14,0.58
2013-9-13,72.5,68.2,62.6,59.9,51.8,46.7,73,57,41,30.13,29.97,19,5,19,0.05
2013-9-14,81.8,70.2,58.6,61.7,55.0,49.2,76,59,41,29.99,29.79,22,7,22,0.04
2013-9-15,81.1,72.3,63.2,67.1,61.8,56.8,81,70,57,30.10,29.80,28,8,28,0.03
2013-9-16,63.1,60.8,59.2,60.4,57.7,55.9,95,90,80,30.16,30.07,22,6,22,0.03
2013-9-17,83.6,71.0,61.8,67.4,64.4,60.4,95,81,56,30.11,29.80,27,9,27,0.17
2013-9-18,92.9,81.0,70.9,67.3,63.6,57.1,82,59,32,29.83,29.63,39,12,39,0.00
2013-9-19,87.2,77.1,67.9,66.7,61.1,51.1,66,58,45,29.95,29.68,27,10,27,0.00
2013-9-20,75.1,64.4,55.6,53.3,48.4,42.9,84,58,32,30.08,29.93,19,5,19,0.00
2013-9-21,85.1,68.3,52.0,52.5,48.2,40.4,85,55,22,29.97,29.78,19,4,19,0.00
2013-9-22,80.7,69.5,58.4,52.5,48.5,41.3,79,50,28,29.83,29.68,28,10,31,0.00
2013-9-23,80.1,69.4,56.6,51.4,48.7,45.0,73,50,32,29.72,29.55,38,13,38,0.00
2013-9-24,74.2,66.8,60.1,55.4,53.5,50.6,77,63,48,29.84,29.65,30,9,30,0.00
2013-9-25,82.8,67.6,52.9,57.8,53.3,49.1,91,64,32,29.86,29.62,27,6,27,0.00
2013-9-26,92.5,78.1,65.3,60.1,55.3,50.7,73,48,26,29.66,29.57,41,15,41,0.00
2013-9-27,88.0,79.3,70.8,62.0,57.3,53.7,57,47,35,29.72,29.61,36,14,36,0.00
2013-9-28,77.6,63.3,53.3,66.8,48.1,37.4,91,60,32,30.04,29.58,29,8,29,0.37
2013-9-29,77.6,61.1,45.8,47.0,41.7,31.7,86,55,21,30.05,29.84,18,4,18,0.01
2013-9-30,82.8,66.2,51.9,51.8,47.9,43.5,85,56,27,29.85,29.68,20,6,24,0.00
2013-10-1,85.9,72.3,59.3,61.0,54.1,49.9,72,54,35,29.85,29.72,20,6,20,0.00
2013-10-2,84.7,73.3,66.0,66.1,62.9,60.2,91,71,48,29.83,29.71,26,8,26,0.00
2013-10-3,89.0,77.2,63.9,66.8,64.3,59.3,89,66,41,29.72,29.53,33,11,33,0.00
2013-10-4,89.3,73.8,51.4,66.4,55.2,29.5,79,54,21,29.95,29.54,39,14,39,0.02
2013-10-5,60.9,51.7,46.1,32.2,29.7,25.5,58,44,28,30.03,29.91,30,10,30,0.00
2013-10-6,69.1,55.0,46.5,37.0,29.8,14.2,62,41,12,30.02,29.92,30,9,30,0.00
2013-10-7,76.8,59.3,41.5,38.8,33.7,28.3,75,42,19,30.13,29.96,19,5,19,0.00
2013-10-8,78.8,65.9,55.6,48.2,40.3,36.7,58,41,24,29.98,29.80,35,13,35,0.00
2013-10-9,81.1,67.4,57.2,53.8,48.0,42.5,70,52,27,29.89,29.80,33,12,33,0.00
2013-10-10,82.2,69.9,61.3,57.0,54.2,50.4,73,59,40,29.87,29.64,33,12,33,0.00
2013-10-11,79.8,70.0,58.3,58.3,46.3,27.9,75,48,15,29.85,29.57,26,10,33,0.00
2013-10-12,69.3,57.8,45.8,43.1,36.3,29.2,79,48,24,30.20,29.85,19,4,19,0.00
2013-10-13,71.3,58.7,43.1,37.9,35.2,27.0,75,45,21,30.31,30.13,30,9,30,0.00
2013-10-14,65.0,62.1,55.7,59.6,51.5,35.8,91,70,36,30.13,29.66,35,12,35,0.16
2013-10-15,57.8,50.8,43.9,47.1,37.1,32.8,79,61,41,30.13,29.84,32,10,32,0.04
2013-10-16,55.9,49.0,40.9,36.5,33.5,28.0,79,56,35,30.12,29.97,20,6,20,0.00
2013-10-17,64.7,50.7,40.1,39.5,35.7,27.9,83,60,28,30.06,29.90,21,6,21,0.00
2013-10-18,45.5,37.6,33.1,35.8,32.9,30.3,92,84,69,30.17,30.04,21,4,21,0.30
2013-10-19,66.9,47.4,31.6,40.4,33.9,29.0,91,65,27,30.09,29.83,24,5,24,0.14
2013-10-20,67.3,54.1,42.8,42.9,37.2,33.4,75,55,30,29.96,29.75,18,5,18,0.00
2013-10-21,61.8,50.4,39.2,38.6,34.3,29.0,82,56,33,30.10,29.94,22,5,22,0.00
2013-10-22,65.3,54.6,44.9,42.0,37.4,32.1,75,54,31,30.09,29.90,30,7,30,0.00
2013-10-23,67.3,51.4,36.8,41.8,36.7,32.9,86,60,35,30.15,29.95,28,6,28,0.00
2013-10-24,50.5,44.3,38.8,37.5,27.6,0.0,82,54,31,30.40,30.15,16,4,16,0.00
2013-10-25,59.3,46.3,32.8,38.3,27.8,21.2,74,52,25,30.41,30.08,24,6,24,0.00
2013-10-26,60.7,50.9,39.2,40.7,31.8,19.6,86,53,22,30.18,30.03,25,5,25,0.00
2013-10-27,70.8,50.5,32.2,31.8,28.6,24.7,79,48,22,30.14,29.83,24,6,24,0.00
2013-10-28,63.9,54.8,41.6,53.6,45.5,30.1,88,72,41,29.99,29.87,27,8,27,0.00
2013-10-29,67.8,58.1,51.9,64.3,54.6,48.2,95,88,71,29.95,29.80,32,7,32,0.16
2013-10-30,51.9,50.0,48.8,49.9,47.5,44.6,95,91,85,29.93,29.72,15,4,15,0.05
2013-10-31,62.9,51.9,44.3,44.6,39.4,31.3,88,66,31,29.72,29.56,21,6,28,0.00
2013-11-1,62.0,50.7,39.9,37.9,34.2,27.5,79,55,27,30.07,29.67,29,7,29,0.00
2013-11-2,61.5,47.8,37.2,32.2,28.9,22.5,69,51,23,30.25,30.05,16,5,16,0.00
2013-11-3,63.9,52.8,45.1,37.6,33.2,27.6,58,48,33,30.06,29.64,52,17,52,0.00
2013-11-4,62.0,54.4,48.8,42.3,38.8,35.1,74,56,37,30.01,29.65,48,11,48,0.00
2013-11-5,60.2,51.1,38.2,56.9,46.5,32.4,93,85,65,30.05,29.73,34,10,34,0.03
2013-11-6,45.7,38.1,33.1,33.6,31.4,28.6,86,77,60,30.31,30.04,30,6,30,0.01
2013-11-7,57.5,43.8,31.0,35.1,31.7,27.2,88,65,38,30.44,30.23,15,3,15,0.00
2013-11-8,69.3,54.8,41.6,34.5,31.2,25.0,72,43,21,30.23,29.73,46,12,46,0.01
2013-11-9,65.3,52.5,39.5,36.1,32.7,28.5,79,50,25,30.25,29.89,13,3,16,0.00
2013-11-10,63.1,51.1,39.9,47.6,37.8,31.6,83,62,39,30.33,30.14,27,7,27,0.00
2013-11-11,52.5,42.2,27.8,49.0,35.7,12.3,93,79,49,30.69,30.09,30,9,30,0.00
2013-11-12,37.5,26.6,17.8,13.3,8.3,1.3,74,48,23,30.91,30.66,27,6,27,0.00
2013-11-13,53.8,38.6,24.7,26.1,18.0,11.6,62,45,27,30.66,30.06,32,12,32,0.00
2013-11-14,57.3,46.0,38.8,31.0,23.4,13.5,65,42,29,30.06,29.87,28,8,28,0.00
2013-11-15,59.2,47.5,32.4,45.6,35.6,27.9,84,65,44,29.87,29.53,31,9,31,0.00
2013-11-16,73.7,62.1,54.8,49.8,41.9,26.8,75,51,23,29.53,29.21,42,12,42,0.00
2013-11-17,63.2,54.6,39.5,45.3,26.2,8.0,63,37,12,30.08,29.21,42,12,42,0.00
2013-11-18,60.5,44.8,30.7,28.4,22.8,15.4,76,46,17,30.26,30.04,17,4,17,0.00
2013-11-19,62.1,50.1,36.9,32.7,25.7,21.1,61,40,24,30.16,29.77,43,12,43,0.00
2013-11-20,66.0,55.7,50.2,47.0,36.8,23.6,79,51,32,29.83,29.67,30,9,30,0.00
2013-11-21,52.0,32.7,23.3,44.7,26.1,15.2,86,76,69,30.55,29.83,34,13,34,0.03
2013-11-22,29.1,25.0,19.2,16.1,11.6,7.4,73,57,41,30.73,30.55,29,9,30,0.00
2013-11-23,29.3,26.1,19.1,17.8,12.2,5.0,63,55,45,30.83,30.66,24,7,24,0.00
2013-11-24,29.0,23.1,17.0,14.0,7.3,0.6,71,52,30,30.75,30.27,22,7,22,0.00
2013-11-25,39.5,31.1,27.2,26.4,20.1,12.4,81,64,53,30.27,30.17,22,5,22,0.00
2013-11-26,37.8,29.7,21.4,22.5,14.0,3.6,81,55,24,30.47,30.23,34,9,34,0.00
2013-11-27,40.2,26.5,13.8,18.6,10.4,5.8,71,52,29,30.47,30.11,25,6,25,0.00
2013-11-28,38.3,31.7,25.0,22.0,20.4,18.2,78,63,49,30.45,30.11,19,5,19,0.00
2013-11-29,55.9,37.7,20.2,31.8,23.2,14.7,80,58,34,30.45,30.12,33,8,33,0.00
2013-11-30,59.0,42.7,30.1,33.4,29.7,25.3,83,62,35,30.12,30.03,18,3,18,0.00
2013-12-1,58.0,40.9,26.9,35.4,29.5,22.4,85,66,38,30.08,29.80,9,1,9,0.00
2013-12-2,65.8,48.5,35.6,37.6,31.9,28.8,78,56,27,29.80,29.50,15,5,15,0.00
2013-12-3,66.8,48.0,37.5,35.3,32.5,29.8,78,59,26,29.57,29.41,23,6,23,0.00
2013-12-4,37.5,26.0,18.8,32.6,18.3,3.6,91,73,50,30.17,29.54,30,12,30,0.00
2013-12-5,18.8,15.6,11.7,7.1,-1.6,-5.8,63,46,36,30.46,30.16,27,11,27,0.00
2013-12-6,16.2,12.6,7.7,-4.9,-8.2,-10.8,50,38,30,30.71,30.44,27,10,27,0.00
2013-12-7,19.5,11.2,1.1,7.9,-3.5,-7.8,66,52,34,30.77,30.33,20,7,20,0.00
2013-12-8,22.4,18.6,10.5,17.5,12.1,4.0,86,76,52,30.33,29.98,23,7,23,0.00
2013-12-9,19.4,11.1,4.8,5.5,-0.1,-5.3,80,61,46,30.47,30.24,17,5,17,0.00
2013-12-10,43.5,26.9,10.5,15.0,8.6,2.0,68,47,26,30.36,30.11,25,6,25,0.00
2013-12-11,28.2,21.4,16.1,19.4,4.9,-5.1,71,50,28,30.68,30.22,26,8,26,0.00
2013-12-12,49.6,30.6,16.7,20.5,11.4,-2.7,68,46,27,30.56,30.07,22,8,22,0.00
2013-12-13,49.5,36.6,28.8,32.6,26.9,20.5,79,68,51,30.07,29.73,24,7,24,0.00
2013-12-14,33.7,26.4,20.6,22.7,17.4,13.1,79,69,52,30.25,29.98,28,9,28,0.00
2013-12-15,59.5,40.7,21.6,25.8,20.5,14.5,78,49,23,30.20,29.97,17,5,17,0.00
2013-12-16,62.9,46.3,33.2,28.2,22.4,19.2,58,41,22,30.11,29.96,15,3,15,0.00
2013-12-17,53.5,39.2,26.7,28.6,21.8,16.9,82,54,24,30.33,30.11,19,5,25,0.00
2013-12-18,67.9,50.7,35.3,34.2,26.4,18.5,55,40,21,30.16,29.66,29,9,29,0.00
2013-12-19,59.0,46.9,20.6,44.2,35.9,14.7,81,66,51,29.80,29.53,31,7,31,0.00
2013-12-20,21.8,18.5,14.9,15.7,10.4,7.3,86,71,62,30.01,29.80,30,8,31,0.00
2013-12-21,24.8,22.6,20.8,21.0,15.7,10.8,89,75,63,29.94,29.69,25,6,25,0.00
2013-12-22,27.9,19.9,9.3,20.1,14.1,5.2,89,78,60,30.40,29.86,23,6,23,0.00
2013-12-23,18.0,13.4,5.4,9.0,6.1,0.5,83,72,57,30.67,30.40,12,4,12,0.00
2013-12-24,30.1,21.5,13.5,27.8,17.3,6.0,92,84,73,30.57,30.14,31,9,31,0.00
2013-12-25,45.7,32.5,22.4,28.4,23.7,17.4,91,72,45,30.39,30.29,17,3,17,0.03
2013-12-26,43.9,31.4,20.8,27.3,21.4,14.9,81,67,50,30.32,30.17,20,5,20,0.00
2013-12-27,49.9,34.9,21.4,29.5,23.5,17.0,84,65,37,30.33,30.13,18,5,18,0.00
2013-12-28,47.1,38.1,30.1,32.5,27.9,23.5,78,67,50,30.13,29.80,36,8,36,0.00
2013-12-29,30.1,16.5,8.8,23.4,0.3,-9.5,76,50,29,30.40,30.05,42,11,42,0.00
2013-12-30,37.9,22.7,7.4,22.3,10.1,-1.9,74,58,47,30.33,30.19,21,5,21,0.00
2013-12-31,51.1,35.6,20.6,28.0,22.8,15.4,81,61,38,30.33,29.98,25,7,30,0.00
2014-1-1,36.8,17.7,8.8,25.0,11.1,1.3,81,75,62,30.44,29.96,30,11,30,0.00
2014-1-2,25.4,14.9,6.0,13.4,6.7,-0.5,80,70,58,30.49,30.39,16,5,16,0.00